This is the latest recevied weather packets stored in our database for station/object M0OAB-1. If no packets are shown the sender has not sent any weather packets the latest 10 day(s).
| Time | Temp. | Humidity | Pressure | Rain* | Wind** | Luminosity | Snow |
|---|---|---|---|---|---|---|---|
| 1777972325 | 16.11° C | 62% | 998.9 hPa | 0 mm | - | - | - |
| 1777971604 | 15.56° C | 63% | 998.9 hPa | 0 mm | - | - | - |
| 1777971124 | 15° C | 63% | 999 hPa | 0 mm | - | - | - |
| 1777969805 | 14.44° C | 70% | 999 hPa | 0 mm | - | - | - |
| 1777969564 | 13.89° C | 68% | 998.9 hPa | 0 mm | - | - | - |
| 1777969205 | 13.89° C | 67% | 999 hPa | 0 mm | - | - | - |
| 1777969084 | 13.89° C | 67% | 999.1 hPa | 0 mm | - | - | - |
| 1777968605 | 13.33° C | 69% | 998.9 hPa | 0 mm | - | - | - |
| 1777963564 | 11.67° C | 80% | 999.1 hPa | 0 mm | - | - | - |
| 1777962845 | 11.67° C | 82% | 999.3 hPa | 0 mm | - | - | - |
| 1777962724 | 11.67° C | 82% | 999.3 hPa | 0 mm | - | - | - |
| 1777961885 | 11.67° C | 84% | 999.2 hPa | 0 mm | - | - | - |
| 1777960565 | 11.11° C | 85% | 999.4 hPa | 0 mm | - | - | - |
| 1777960325 | 11.11° C | 85% | 999.3 hPa | 0 mm | - | - | - |
| 1777959964 | 10.56° C | 85% | 999.3 hPa | 0 mm | - | - | - |
| 1777959844 | 10.56° C | 85% | 999.5 hPa | 0 mm | - | - | - |
| 1777959245 | 10.56° C | 85% | 999.5 hPa | 0 mm | - | - | - |
| 1777959005 | 10.56° C | 85% | 999.4 hPa | 0 mm | - | - | - |
| 1777958765 | 10.56° C | 85% | 999.4 hPa | 0 mm | - | - | - |
| 1777958165 | 10.56° C | 85% | 999.4 hPa | 0 mm | - | - | - |
| 1777957924 | 10.56° C | 85% | 999.5 hPa | 0 mm | - | - | - |
| 1777956724 | 10° C | 84% | 999.3 hPa | 0 mm | - | - | - |
| 1777956484 | 10° C | 84% | 999.2 hPa | 0 mm | - | - | - |
| 1777956245 | 10° C | 84% | 999.3 hPa | 0 mm | - | - | - |
| 1777954924 | 10° C | 84% | 999.3 hPa | 0 mm | - | - | - |
* Rain latest hour (hover to see other rain measurements)
** Current wind speed in m/s (hover to see current wind gust speed)